Location: Lake Almanor
(40.2485°N, 121.1442°W)
Time: 02:21:34
(UTC-08:00)

STARLINK-1088 - Pass Details

Date: 31 January 2020
Orbit: 345 x 354 km, 53.0° (Epoch: 22 February)

Event Time Altitude Azimuth Distance (km) Brightness Sun altitude
Rises 19:39:53 0° 297° (WNW) 2,184 7.6 -26.5°
Reaches altitude 10° 19:42:11 10° 282° (WNW) 1,334 6.5 -27.0°
Enters shadow 19:43:11 16° 266° (W) 1,038 5.9 -27.1°
